CAPE
887 843 663 642 774 748 1068 1014 876 907 984 958 994 930 735 510 676 759 734 559 459 198 346 500 439 456 513 437 550 512 489 460 570 738 866 950 1118 1322 1342 1340 1188 1014 818 728 663 589 610 578 375 325 780 837 662 399 283 241 179 154 153 96 76 14 10 8 10 5 0 0 0 0 0 0 1 0 0 0 0 0 0 0 0 0 0 0 0
904 779 644 499 443 613 719 842 784 703 679 655 621 512 485 499 536 592 451 260 68 20 155 338 297 474 432 329 396 448 544 607 570 630 795 939 1096 1324 1429 1434 1214 1155 1021 712 633 638 647 633 527 270 654 847 777 525 396 271 248 221 173 161 92 112 31 4 1 5 4 0 0 0 0 0 0 0 1 0 0 1 2 1 0 0 0 0 0
887 760 666 461 445 537 774 952 775 492 822 609 505 486 315 367 339 304 316 157 48 6 19 286 298 446 427 502 436 369 571 551 530 538 776 984 1141 1268 1433 1443 1430 1403 1285 1165 907 749 591 642 641 406 329 988 993 778 602 458 403 364 300 181 148 127 122 76 26 2 5 0 0 0 0 0 0 0 0 0 0 0 0 1 1 0 0 0 0
718 599 428 457 323 366 689 1000 953 686 691 564 528 243 373 532 398 393 173 136 120 37 59 230 306 312 386 370 453 469 569 569 534 546 673 877 1015 1116 1103 1228 1513 1369 1283 1191 1075 1036 1025 533 693 779 595 439 879 994 848 668 686 558 477 278 190 184 155 106 75 47 1 0 0 0 0 0 0 0 0 0 0 0 0 0 0 0 0 0 0
908 608 522 161 367 433 528 1060 952 970 843 769 512 364 421 561 386 317 319 221 215 50 208 165 374 360 368 532 623 653 588 533 629 712 636 663 842 850 985 1127 1225 1456 1463 1507 1436 1326 1151 982 619 688 661 646 672 1010 788 762 872 856 658 450 328 219 231 176 88 74 36 0 0 0 0 0 0 0 0 0 0 0 0 0 0 0 0 0 0
898 785 681 563 598 657 859 1323 1425 1178 727 501 462 419 369 410 283 301 390 183 208 97 350 269 325 323 261 350 470 426 333 614 621 671 740 578 722 645 807 1050 1154 1174 1233 1487 1509 1458 1520 1380 1440 1416 1253 1209 787 647 579 412 399 1053 895 668 506 342 344 235 188 126 69 18 0 0 0 0 0 0 0 0 0 0 0 0 0 0 0 0 0
952 896 770 502 602 1205 1245 1190 862 625 703 699 494 470 420 314 316 287 178 164 147 366 406 582 663 615 488 372 497 714 888 550 432 763 680 757 590 506 279 394 622 977 1237 1240 1532 1455 1591 1586 1466 1488 1337 1202 989 711 643 681 541 595 705 1062 719 565 458 394 299 200 121 53 0 1 1 0 0 0 0 0 0 0 0 0 0 0 0 0 0
1190 991 830 883 957 1246 1054 698 914 603 791 727 492 404 446 328 318 380 294 256 370 337 604 694 706 805 720 706 767 1016 1020 790 899 1059 911 678 509 556 477 327 329 422 1005 940 1075 1388 1516 1576 1502 1518 1521 1402 1265 1137 1009 970 876 798 763 978 1156 854 677 585 427 419 277 86 20 0 0 0 0 0 0 0 0 0 0 0 0 0 0 0 0
1305 1414 1280 1271 1231 1038 900 981 983 718 857 650 586 528 420 404 371 358 209 338 412 519 1124 1188 988 773 634 400 544 873 636 425 475 628 802 588 529 566 572 440 507 1011 751 515 853 1152 1276 1358 1479 1538 1602 1505 1536 1405 1268 1043 1385 1189 1044 1140 955 1134 907 642 502 382 303 264 118 36 3 0 0 0 0 0 0 0 1 0 0 0 0 0 0
1333 1186 1193 1159 1058 881 849 916 858 730 743 559 652 587 472 516 485 266 222 280 342 480 546 918 593 477 554 740 924 1024 1044 1080 816 1118 604 294 419 609 402 325 469 644 675 728 605 760 666 951 787 860 1096 1016 1152 1460 1488 1280 1295 1283 1285 1136 1036 1036 1137 938 778 593 503 377 276 169 61 5 0 0 0 0 0 0 0 2 1 0 0 0 0
1321 1115 1093 931 914 792 642 715 750 707 748 771 563 625 642 636 438 154 236 376 446 470 476 643 1005 1062 912 644 499 615 554 428 375 432 418 517 426 360 237 368 488 464 572 742 748 798 583 397 477 818 676 1090 1174 1293 1415 1358 1363 1222 1268 1185 1036 1070 1032 1081 934 898 746 620 504 355 241 78 136 1 0 1 1 0 0 0 0 0 0 0 0
1096 1036 994 981 934 720 472 618 708 871 909 1014 838 729 800 723 652 477 397 380 484 528 543 738 769 720 786 775 603 467 533 384 406 493 415 536 431 281 408 91 345 394 632 693 800 734 833 1007 1099 955 764 984 1046 1073 1041 912 972 1140 1152 1083 1144 1103 1032 923 913 834 901 841 727 672 669 362 208 197 121 4 1 2 0 0 0 0 0 0 0
1197 1077 1160 1176 831 542 576 594 758 901 1179 1071 907 870 854 904 851 800 456 466 577 600 889 773 744 742 608 492 478 622 1097 442 416 203 330 308 74 222 121 231 186 547 600 561 606 380 712 1072 843 932 619 602 492 491 315 244 208 240 235 440 879 1135 925 966 884 937 825 859 773 784 700 634 477 388 362 245 157 51 0 0 0 0 0 0 0
1255 879 1111 1092 924 661 740 891 1081 1256 1288 1073 820 842 931 905 960 809 659 775 894 1297 982 604 550 547 446 454 382 370 549 483 382 350 142 132 9 4 8 9 108 423 514 528 535 603 828 626 771 874 724 734 736 510 279 225 94 58 31 28 107 682 1006 888 685 787 924 859 680 780 672 666 614 557 446 403 272 219 29 15 0 0 0 0 0
1172 1166 980 919 799 629 698 950 1156 1298 1226 1112 790 779 879 922 942 669 614 674 790 1122 926 1150 694 735 551 343 311 291 326 323 228 208 27 2 185 11 0 159 262 314 97 81 195 435 456 428 435 683 810 550 533 175 168 100 38 0 0 0 0 122 398 667 893 800 776 868 706 817 689 652 673 642 629 561 461 295 240 132 24 3 0 0 0
879 924 836 723 554 631 624 729 918 922 1100 1165 843 1031 858 901 1026 803 638 454 745 839 670 664 706 577 398 416 362 290 231 227 168 45 4 0 0 0 0 106 234 133 0 236 260 65 95 157 518 647 566 506 421 286 202 82 0 0 0 0 0 0 149 530 698 684 588 842 710 560 541 552 532 591 631 585 238 252 329 354 166 62 0 0 0
621 862 656 679 574 567 500 604 776 981 1231 1108 1060 1241 1098 1168 919 823 418 466 508 540 530 436 592 956 363 379 299 282 216 86 119 0 68 0 2 0 64 35 10 197 199 212 144 27 13 51 126 246 418 400 184 22 0 0 0 0 0 0 0 0 0 240 672 714 626 608 727 764 597 552 569 671 636 676 562 558 377 312 368 234 52 2 0
566 620 539 618 631 658 601 860 895 885 1037 1343 1030 1054 899 1190 1168 872 616 523 542 524 480 393 425 667 979 1483 632 88 259 79 0 0 0 0 0 1 15 12 121 190 159 17 7 0 0 3 96 330 54 0 0 0 0 0 0 0 0 0 0 0 47 0 456 683 525 612 890 747 678 575 546 569 549 602 614 604 599 443 329 295 213 174 29
548 536 394 515 746 983 813 797 716 715 912 1237 1323 1027 960 744 698 732 558 546 452 496 168 305 355 529 759 947 1126 607 86 10 172 0 0 0 0 0 0 0 0 0 0 0 0 0 6 4 457 235 11 0 0 0 0 0 0 0 0 0 0 0 0 0 8 524 964 455 581 636 474 343 509 453 490 512 409 382 378 384 373 470 499 482 324
539 556 458 543 780 762 606 561 463 673 838 714 924 1199 976 758 530 707 467 402 385 475 99 443 350 520 623 564 604 493 377 244 137 0 0 0 0 0 0 0 0 0 0 0 0 0 0 0 0 0 0 0 0 0 0 0 0 0 0 0 0 0 0 0 0 0 257 477 464 271 464 383 332 240 280 162 227 289 310 506 429 424 510 618 525
1 50 131 108 148 126 386 485 568 577 681 546 658 1036 1078 728 606 511 648 482 510 255 386 444 696 702 706 729 772 457 351 431 427 45 8 0 0 0 0 0 0 0 0 0 0 0 0 0 0 0 0 0 0 0 0 0 0 0 0 0 0 0 0 0 0 0 0 39 93 116 128 169 115 31 28 36 46 96 132 252 464 530 464 469 420
5 24 59 136 86 10 1 20 59 387 634 255 626 785 798 724 721 685 492 593 645 388 421 318 667 646 666 645 758 352 487 530 391 103 0 0 0 0 0 0 0 0 0 0 0 0 0 0 0 0 0 0 0 0 0 0 0 0 0 0 0 0 0 0 0 0 0 0 0 0 0 0 16 5 0 0 0 0 0 33 74 18 111 395 337
10 38 17 37 70 104 29 14 4 82 107 105 434 451 582 640 614 665 638 864 842 570 422 316 351 602 740 727 698 387 366 400 433 25 1 0 0 0 0 0 0 0 0 0 0 0 0 0 0 0 0 0 0 0 0 0 0 0 0 0 0 0 0 0 0 0 0 0 0 0 0 0 0 0 0 0 0 0 0 0 0 0 1 4 24
0 0 22 57 63 43 27 25 71 24 294 487 601 616 578 559 541 699 855 786 710 579 530 435 368 474 632 698 699 467 300 196 340 36 0 0 0 0 0 0 0 0 0 0 0 0 0 0 0 0 0 0 0 0 0 0 0 0 0 0 0 0 0 0 0 0 0 0 0 0 0 0 0 0 0 0 0 0 0 0 0 0 0 0 0
0 4 111 102 89 58 27 7 4 18 43 339 526 711 580 522 562 721 773 749 759 573 410 433 306 295 300 363 545 538 314 135 183 86 10 0 0 0 0 0 0 0 0 0 0 0 0 0 0 0 0 0 0 0 0 0 0 0 0 0 0 0 0 0 0 0 0 0 0 0 0 0 0 0 0 0 0 0 0 0 0 0 0 0 0
0 0 49 6 0 6 6 10 9 0 35 474 634 648 633 656 598 563 578 589 355 76 13 0 0 104 132 135 171 112 108 0 27 64 32 0 0 0 0 0 0 0 0 0 0 0 0 0 0 0 0 0 0 0 0 0 0 0 0 0 0 0 0 0 0 0 0 0 0 0 0 0 0 0 0 0 0 0 0 0 0 0 0 0 0
0 0 0 0 0 0 7 33 16 5 19 196 358 408 462 430 125 65 348 210 0 0 0 0 0 0 0 0 0 0 0 0 0 1 28 0 0 0 0 0 0 0 0 0 0 0 0 0 0 0 0 0 0 0 0 0 0 0 0 0 0 0 0 0 0 0 0 0 0 0 0 0 0 0 0 0 0 0 0 0 0 0 0 0 0
0 0 0 0 0 0 0 0 0 0 0 0 0 0 176 56 0 0 187 160 0 0 0 0 0 0 0 0 0 0 0 0 0 0 0 0 0 0 0 0 0 0 0 0 0 0 0 0 0 0 0 0 0 0 0 0 0 0 0 0 0 0 0 0 0 0 0 0 0 0 0 0 0 0 0 0 0 0 0 0 0 0 0 0 0
0 0 0 0 0 0 0 0 0 0 0 0 0 0 0 0 0 0 0 0 0 0 0 0 0 0 0 0 0 0 0 0 0 0 0 0 0 0 0 0 0 0 0 0 0 0 0 0 0 0 0 0 0 0 0 0 0 0 0 0 0 0 0 0 0 0 0 0 0 0 0 0 0 0 0 0 0 0 0 0 0 0 0 0 0
0 0 0 0 0 3 0 0 0 0 0 0 0 0 0 0 0 0 0 0 0 0 0 0 0 0 0 0 0 0 0 0 0 0 0 0 0 0 0 0 0 0 0 0 0 0 0 0 0 0 0 0 0 0 0 0 0 0 0 0 0 0 0 0 0 0 0 0 0 0 0 0 0 0 0 0 0 0 0 0 0 0 0 0 0
0 0 0 0 0 0 0 0 0 0 0 0 0 0 0 0 0 0 0 0 0 0 0 0 0 0 0 0 0 0 0 0 0 0 0 0 0 0 0 0 0 0 0 0 0 0 0 0 0 0 0 0 0 0 0 0 0 0 0 0 0 0 0 0 0 0 0 0 0 0 0 0 0 0 0 0 0 0 0 0 0 0 0 0 0
0 0 0 0 0 0 0 0 0 0 0 0 0 0 0 0 0 0 0 0 0 0 0 0 0 0 0 0 0 0 0 0 0 0 0 0 0 0 0 0 0 0 0 0 0 0 0 0 0 0 0 0 0 0 0 0 0 0 0 0 0 0 0 0 0 0 0 0 0 0 0 0 0 0 0 0 0 0 0 0 0 0 0 0 0
0 0 0 0 0 0 0 0 0 0 0 0 0 0 0 0 0 0 0 0 0 0 0 0 0 0 0 0 0 0 0 0 0 0 0 0 0 0 0 0 0 0 0 0 0 0 0 0 0 0 0 0 0 0 0 0 0 0 0 0 0 0 0 0 0 0 0 0 0 0 0 0 0 0 0 0 0 0 0 0 0 0 0 0 0
0 0 0 0 0 0 0 0 0 0 0 0 0 0 0 0 0 0 0 0 0 0 0 0 0 0 0 0 0 0 0 0 0 0 0 0 0 0 0 0 0 0 0 0 0 0 0 0 0 0 0 0 0 0 0 0 0 0 0 0 0 0 0 0 0 0 0 0 0 0 0 0 0 0 0 0 0 0 0 0 0 0 0 0 0
0 0 0 0 0 0 0 0 0 0 0 0 0 0 0 0 0 0 0 0 0 0 0 0 0 0 0 0 0 0 0 0 0 0 0 0 0 0 0 0 0 0 0 0 0 0 0 0 0 0 0 0 0 0 0 0 0 0 0 0 0 0 0 0 0 0 0 0 0 0 0 0 0 0 0 0 0 0 0 0 0 0 0 0 0
0 0 0 0 0 0 0 0 0 0 0 0 0 0 0 0 0 0 0 0 0 0 0 0 0 0 0 0 0 0 0 0 0 0 0 0 0 0 0 0 0 0 0 0 0 0 0 0 0 0 0 0 0 0 0 0 0 0 0 0 0 0 0 0 0 0 0 0 0 0 0 0 0 0 0 0 0 0 0 0 0 0 0 0 0
0 0 0 0 0 0 0 0 0 0 0 0 0 0 0 0 0 0 0 0 0 0 0 0 0 0 0 0 0 0 0 0 0 0 0 0 0 0 0 0 0 0 0 0 0 0 0 0 0 0 0 0 0 0 0 0 0 0 0 0 0 0 0 0 0 0 0 0 0 0 0 0 0 0 0 0 0 0 0 0 0 0 0 0 0
0 0 0 0 0 0 0 0 0 0 0 0 0 0 0 0 0 0 0 0 0 0 0 0 0 0 0 0 0 0 0 0 0 0 0 0 0 0 0 0 0 0 0 0 0 0 0 0 0 0 0 0 0 0 0 0 0 0 0 0 0 0 0 0 0 0 0 0 0 0 0 0 0 0 0 0 0 0 0 0 0 0 0 0 0
0 0 0 0 0 0 0 0 0 0 0 0 0 0 0 0 0 0 0 2 7 0 0 0 0 0 0 0 0 0 0 0 0 0 0 0 0 0 0 0 0 0 0 0 0 0 0 0 0 0 0 0 0 0 0 0 0 0 0 0 0 0 0 0 0 0 0 0 0 0 0 0 0 0 0 0 0 0 0 0 0 0 0 0 0
0 0 0 0 0 0 0 0 0 0 0 0 0 0 0 0 0 4 0 8 6 34 0 66 5 0 17 14 2 2 0 0 0 0 0 0 0 0 0 0 0 0 0 0 0 0 0 0 0 0 0 0 0 0 0 0 0 0 0 0 0 0 0 0 0 0 0 0 0 0 0 0 0 0 0 0 0 0 0 0 0 0 0 0 0
0 0 0 0 0 0 0 0 0 0 0 0 0 0 0 0 0 0 4 0 0 189 199 275 280 264 162 0 0 0 165 248 89 18 93 138 14 0 0 0 0 0 0 0 0 0 0 0 0 0 0 0 0 0 0 0 0 0 0 0 0 0 0 0 0 0 0 0 0 0 0 0 0 0 0 0 0 0 0 0 0 0 0 0 0
52 0 0 0 0 0 0 0 0 0 0 0 0 0 0 0 0 1 65 12 29 178 336 360 345 340 256 9 0 9 0 0 0 0 0 0 1 0 0 0 0 0 0 0 0 0 0 0 0 0 0 0 0 0 0 0 0 0 0 0 0 0 0 0 0 0 0 0 0 0 0 0 0 0 0 0 0 0 0 0 0 0 0 0 0
312 277 309 53 50 4 0 0 0 0 0 0 0 0 0 0 0 15 86 186 287 196 375 356 409 410 393 1 0 0 0 0 0 0 0 0 0 0 0 0 0 0 0 0 0 0 0 0 0 0 0 0 0 0 0 0 0 0 0 0 0 0 0 0 0 0 0 0 0 0 0 0 0 0 0 0 0 0 0 0 0 0 0 0 0
610 504 294 357 376 192 125 35 4 1 0 0 0 0 0 0 7 298 421 440 490 93 396 376 392 429 389 300 154 0 0 0 0 0 0 0 0 0 0 0 0 0 0 0 0 0 0 0 0 0 0 0 0 0 0 0 0 0 0 0 0 0 0 0 0 0 0 0 0 0 0 0 0 0 0 0 0 0 0 0 0 0 0 0 0
721 729 563 318 407 579 467 297 28 2 0 0 0 0 0 0 27 434 548 546 576 563 458 36 0 364 325 0 28 1 19 25 138 0 0 0 0 0 0 0 0 0 0 0 0 0 0 0 0 0 0 0 0 0 0 0 0 0 0 0 0 0 0 0 0 0 0 0 0 0 0 0 0 0 0 0 0 0 0 0 0 0 0 0 0
674 620 664 588 451 466 563 594 564 425 453 390 0 0 0 0 534 584 619 650 662 651 642 586 499 258 0 0 0 9 2 18 0 294 389 397 37 0 0 0 0 0 0 0 0 0 0 0 0 0 0 0 0 0 0 0 0 0 0 0 0 0 0 0 0 0 0 0 0 0 0 0 0 0 0 0 0 0 0 0 0 0 0 0 0
622 649 688 728 655 490 493 598 567 517 540 509 469 170 0 0 475 653 688 723 723 720 677 709 692 573 479 347 0 0 0 0 0 0 325 435 435 330 0 0 0 0 0 0 0 0 0 0 0 0 0 0 0 0 0 0 0 0 0 0 0 0 0 0 0 0 0 0 0 0 0 0 0 0 0 0 0 0 0 0 0 0 0 0 0
658 669 647 634 671 734 704 638 624 593 559 513 501 512 498 438 368 577 669 699 733 716 660 525 227 116 3 13 6 0 0 0 0 1 0 94 179 70 0 87 30 0 0 0 0 0 0 0 0 0 0 0 0 0 0 0 0 0 0 0 0 0 0 0 0 0 0 0 0 0 0 0 0 0 0 0 0 0 0 0 0 0 0 0 0
157 857 791 726 701 711 743 762 724 638 609 602 537 536 559 566 490 413 518 585 606 575 514 304 8 132 84 2 0 0 0 0 0 0 0 0 2 68 140 74 0 0 0 0 0 0 0 0 0 0 0 0 0 0 0 0 0 0 0 0 0 0 0 0 0 0 0 0 0 0 0 0 0 0 0 0 0 0 0 0 0 0 0 0 0
0 0 0 124 624 730 777 795 740 701 709 680 694 684 603 554 526 423 70 468 511 490 423 262 0 0 0 0 16 0 20 2 1 53 114 38 0 0 0 0 0 0 0 0 0 0 0 0 0 0 0 0 0 0 0 0 0 0 0 0 0 0 0 0 0 0 0 0 0 0 0 0 0 0 0 0 0 0 0 0 0 0 0 0 0
0 0 0 0 233 606 766 767 765 752 700 654 654 659 672 654 588 527 489 383 243 393 322 0 0 11 44 118 14 78 32 2 11 53 0 29 0 0 0 0 0 0 0 0 0 0 0 0 0 0 0 0 0 0 0 0 0 0 0 0 0 0 0 0 0 0 0 0 0 0 0 0 0 0 0 0 0 0 0 0 0 0 0 0 0
Wind_Speed
15 15 15 14 15 17 17 16 15 14 13 12 11 10 10 9 9 9 8 8 6 4 2 15 12 8 13 14 13 13 15 16 17 19 19 20 21 23 27 25 24 21 25 25 24 23 23 22 19 19 20 20 19 19 18 18 19 19 19 nan nan nan nan nan nan nan nan nan nan nan nan nan nan nan nan nan nan nan nan nan nan nan nan nan nan
15 15 16 15 16 15 14 13 14 13 12 12 11 11 10 10 8 8 11 11 nan nan 4 9 9 7 10 12 10 11 12 14 15 17 18 19 20 22 27 27 26 25 23 24 24 24 23 22 22 20 20 19 20 19 18 18 18 19 20 20 nan 20 nan nan nan nan nan nan nan nan nan nan nan nan nan nan nan nan nan nan nan nan nan nan nan
14 15 16 15 15 14 13 12 12 12 13 13 11 9 10 11 7 7 9 10 nan nan nan 6 6 9 9 11 8 10 11 13 15 16 17 17 18 19 22 27 27 27 26 25 24 23 23 24 22 21 20 22 20 20 19 18 17 19 20 20 20 20 20 nan nan nan nan nan nan nan nan nan nan nan nan nan nan nan nan nan nan nan nan nan nan
14 15 15 14 15 14 12 12 11 12 13 12 11 10 10 7 5 6 8 9 12 nan nan 5 9 9 8 9 5 8 8 10 14 15 15 15 15 16 17 19 23 23 22 22 23 25 23 23 22 22 21 21 21 20 20 19 17 18 20 20 20 21 21 21 nan nan nan nan nan nan nan nan nan nan nan nan nan nan nan nan nan nan nan nan nan
13 13 13 13 14 13 10 10 12 13 12 12 11 9 8 7 7 6 9 9 11 nan 8 5 10 7 7 8 8 8 6 8 11 15 14 13 15 17 18 17 16 18 19 22 22 23 23 23 22 22 22 23 23 21 21 20 19 18 19 20 20 21 21 21 nan nan nan nan nan nan nan nan nan nan nan nan nan nan nan nan nan nan nan nan nan
12 10 11 11 12 10 11 13 13 13 12 11 11 9 9 7 7 8 8 10 8 nan 5 9 5 4 5 5 7 7 5 6 7 9 11 13 15 19 17 13 11 13 16 18 20 20 21 22 23 23 21 22 21 23 23 22 22 20 19 20 20 21 21 22 22 23 nan nan nan nan nan nan nan nan nan nan nan nan nan nan nan nan nan nan nan
11 10 9 11 10 11 14 12 12 12 11 10 12 12 9 6 7 7 9 12 9 2 2 8 5 5 4 5 6 5 3 3 3 4 7 11 16 20 13 7 12 13 15 16 16 17 19 20 21 21 20 20 20 23 22 22 21 21 22 21 21 21 22 23 23 23 22 nan nan nan nan nan nan nan nan nan nan nan nan nan nan nan nan nan nan
10 10 10 10 9 10 12 11 11 10 11 11 11 12 8 8 8 9 12 12 7 2 3 6 4 5 3 4 3 3 4 5 5 5 6 12 19 18 10 8 11 11 14 14 15 16 18 20 21 21 22 22 22 22 23 23 23 24 22 22 21 23 23 23 24 24 23 nan nan nan nan nan nan nan nan nan nan nan nan nan nan nan nan nan nan
9 9 11 11 11 12 12 11 10 11 12 11 10 9 9 10 9 7 9 9 7 6 6 3 5 3 3 3 2 2 3 4 5 6 8 14 19 13 8 7 10 11 10 10 12 13 16 18 19 20 21 23 24 23 24 25 25 26 26 23 24 22 23 23 23 23 22 22 23 nan nan nan nan nan nan nan nan nan nan nan nan nan nan nan nan
9 10 11 10 10 11 10 11 12 13 12 12 10 8 10 11 9 6 8 10 8 7 5 4 5 4 3 3 2 4 2 3 4 6 8 13 13 10 7 8 7 8 9 9 9 9 9 10 11 12 13 16 19 21 22 23 24 22 22 22 24 23 21 21 21 22 21 21 22 22 nan nan nan nan nan nan nan nan nan nan nan nan nan nan nan
9 10 11 10 10 11 11 10 11 11 12 14 12 10 10 10 10 7 10 11 10 10 6 4 8 4 3 3 3 5 4 3 3 5 6 9 11 8 8 8 7 8 9 9 9 9 9 8 9 8 10 15 17 20 22 24 23 22 19 21 18 21 20 20 21 20 20 20 19 20 23 nan 22 nan nan nan nan nan nan nan nan nan nan nan nan
10 11 10 9 10 11 12 11 10 11 12 14 12 10 11 10 9 9 12 11 10 12 10 8 10 8 6 6 6 5 5 4 4 4 5 8 9 9 8 nan 8 9 10 10 10 10 10 11 12 13 13 15 17 18 21 24 27 27 25 22 21 19 19 21 23 23 20 18 18 18 21 23 23 23 23 nan nan nan nan nan nan nan nan nan nan
13 13 12 11 11 12 13 11 10 10 12 11 11 11 10 8 8 7 10 11 9 9 8 11 12 9 8 9 9 6 6 6 4 4 7 10 nan 10 9 10 9 11 13 13 12 11 12 13 14 15 15 16 15 17 18 19 24 26 27 25 23 22 20 19 22 25 24 21 19 18 18 22 23 23 23 23 22 nan nan nan nan nan nan nan nan
15 15 15 14 12 11 12 11 9 9 11 11 11 11 11 9 9 8 7 9 9 8 7 10 9 10 12 9 7 6 7 7 7 5 6 8 nan nan nan nan 12 12 13 15 15 15 15 15 15 16 16 16 15 14 13 13 nan nan nan nan 24 23 23 21 21 21 25 25 23 22 22 20 20 22 22 22 23 23 nan nan nan nan nan nan nan
17 18 18 15 13 13 12 11 10 9 12 12 11 10 11 10 8 10 9 8 9 9 9 9 9 10 11 13 8 9 7 8 8 9 nan nan 11 nan nan 12 14 15 nan nan 16 18 17 16 16 17 18 18 18 17 15 13 nan nan nan nan nan 24 23 22 22 21 21 18 22 25 28 25 21 18 20 21 22 22 21 23 nan nan nan nan nan
17 17 16 14 14 13 13 12 10 9 11 12 9 9 11 11 11 9 11 10 9 9 9 10 9 13 11 9 9 12 11 8 8 nan nan nan nan nan nan 14 16 17 nan 15 15 nan nan 17 18 18 19 19 19 17 15 nan nan nan nan nan nan nan 21 20 20 20 19 20 19 20 19 22 22 21 19 18 22 20 19 20 21 nan nan nan nan
18 19 17 16 14 13 12 12 12 11 11 11 12 11 12 13 13 12 9 10 11 9 8 9 8 10 12 13 12 11 9 nan 10 nan nan nan nan nan nan nan nan 18 16 14 16 nan nan nan 19 20 20 20 20 nan nan nan nan nan nan nan nan nan nan 19 21 23 22 21 23 19 16 18 14 15 15 15 20 16 16 15 18 22 nan nan nan
17 18 18 16 13 11 13 13 14 13 10 10 10 12 12 11 12 12 9 8 12 11 8 8 9 10 11 10 10 nan 13 nan nan nan nan nan nan nan nan nan 14 15 14 nan nan nan nan nan nan 20 nan nan nan nan nan nan nan nan nan nan nan nan nan nan 21 21 21 21 23 26 30 31 29 32 30 26 25 23 15 12 14 19 21 22 nan
15 15 15 15 14 13 13 13 13 12 11 11 10 10 11 11 11 11 10 12 14 11 9 10 11 10 10 10 9 9 nan nan 11 nan nan nan nan nan nan nan nan nan nan nan nan nan nan nan 18 19 nan nan nan nan nan nan nan nan nan nan nan nan nan nan nan 21 23 24 26 30 31 30 35 36 33 29 25 21 20 19 17 16 14 19 24
13 13 14 15 15 14 13 12 13 11 10 11 9 9 11 11 13 11 12 13 13 14 nan 10 13 10 10 10 8 11 13 14 13 nan nan nan nan nan nan nan nan nan nan nan nan nan nan nan nan nan nan nan nan nan nan nan nan nan nan nan nan nan nan nan nan nan 26 28 30 29 29 32 35 35 34 36 36 37 37 28 18 15 15 20 18
nan nan 14 17 17 16 14 12 12 12 12 11 10 12 12 15 15 14 11 11 12 15 15 12 13 12 13 10 10 12 13 14 13 nan nan nan nan nan nan nan nan nan nan nan nan nan nan nan nan nan nan nan nan nan nan nan nan nan nan nan nan nan nan nan nan nan nan nan nan 35 35 36 37 nan nan nan nan nan 35 37 40 36 22 17 17
nan nan nan 13 nan nan nan nan nan 15 15 15 16 18 17 15 14 14 12 10 13 17 17 15 14 14 14 14 13 12 14 13 11 13 nan nan nan nan nan nan nan nan nan nan nan nan nan nan nan nan nan nan nan nan nan nan nan nan nan nan nan nan nan nan nan nan nan nan nan nan nan nan nan nan nan nan nan nan nan nan nan nan 38 35 34
nan nan nan nan nan 11 nan nan nan nan 17 17 20 20 18 17 14 15 13 14 15 17 17 16 16 16 14 15 15 15 15 14 12 nan nan nan nan nan nan nan nan nan nan nan nan nan nan nan nan nan nan nan nan nan nan nan nan nan nan nan nan nan nan nan nan nan nan nan nan nan nan nan nan nan nan nan nan nan nan nan nan nan nan nan nan
nan nan nan nan nan nan nan nan nan nan 17 17 18 20 20 17 15 13 14 15 16 16 16 17 16 16 14 14 13 13 13 14 12 nan nan nan nan nan nan nan nan nan nan nan nan nan nan nan nan nan nan nan nan nan nan nan nan nan nan nan nan nan nan nan nan nan nan nan nan nan nan nan nan nan nan nan nan nan nan nan nan nan nan nan nan
nan nan 15 15 nan nan nan nan nan nan nan 16 16 18 18 16 15 14 16 16 15 15 16 15 16 16 13 11 13 13 11 10 13 nan nan nan nan nan nan nan nan nan nan nan nan nan nan nan nan nan nan nan nan nan nan nan nan nan nan nan nan nan nan nan nan nan nan nan nan nan nan nan nan nan nan nan nan nan nan nan nan nan nan nan nan
nan nan nan nan nan nan nan nan nan nan nan 16 17 16 16 16 15 15 14 14 14 nan nan nan nan 15 16 15 14 12 9 nan nan nan nan nan nan nan nan nan nan nan nan nan nan nan nan nan nan nan nan nan nan nan nan nan nan nan nan nan nan nan nan nan nan nan nan nan nan nan nan nan nan nan nan nan nan nan nan nan nan nan nan nan nan
nan nan nan nan nan nan nan nan nan nan nan 19 18 16 16 15 14 nan 12 13 nan nan nan nan nan nan nan nan nan nan nan nan nan nan nan nan nan nan nan nan nan nan nan nan nan nan nan nan nan nan nan nan nan nan nan nan nan nan nan nan nan nan nan nan nan nan nan nan nan nan nan nan nan nan nan nan nan nan nan nan nan nan nan nan nan
nan nan nan nan nan nan nan nan nan nan nan nan nan nan 18 nan nan nan 14 13 nan nan nan nan nan nan nan nan nan nan nan nan nan nan nan nan nan nan nan nan nan nan nan nan nan nan nan nan nan nan nan nan nan nan nan nan nan nan nan nan nan nan nan nan nan nan nan nan nan nan nan nan nan nan nan nan nan nan nan nan nan nan nan nan nan
nan nan nan nan nan nan nan nan nan nan nan nan nan nan nan nan nan nan nan nan nan nan nan nan nan nan nan nan nan nan nan nan nan nan nan nan nan nan nan nan nan nan nan nan nan nan nan nan nan nan nan nan nan nan nan nan nan nan nan nan nan nan nan nan nan nan nan nan nan nan nan nan nan nan nan nan nan nan nan nan nan nan nan nan nan
nan nan nan nan nan nan nan nan nan nan nan nan nan nan nan nan nan nan nan nan nan nan nan nan nan nan nan nan nan nan nan nan nan nan nan nan nan nan nan nan nan nan nan nan nan nan nan nan nan nan nan nan nan nan nan nan nan nan nan nan nan nan nan nan nan nan nan nan nan nan nan nan nan nan nan nan nan nan nan nan nan nan nan nan nan
nan nan nan nan nan nan nan nan nan nan nan nan nan nan nan nan nan nan nan nan nan nan nan nan nan nan nan nan nan nan nan nan nan nan nan nan nan nan nan nan nan nan nan nan nan nan nan nan nan nan nan nan nan nan nan nan nan nan nan nan nan nan nan nan nan nan nan nan nan nan nan nan nan nan nan nan nan nan nan nan nan nan nan nan nan
nan nan nan nan nan nan nan nan nan nan nan nan nan nan nan nan nan nan nan nan nan nan nan nan nan nan nan nan nan nan nan nan nan nan nan nan nan nan nan nan nan nan nan nan nan nan nan nan nan nan nan nan nan nan nan nan nan nan nan nan nan nan nan nan nan nan nan nan nan nan nan nan nan nan nan nan nan nan nan nan nan nan nan nan nan
nan nan nan nan nan nan nan nan nan nan nan nan nan nan nan nan nan nan nan nan nan nan nan nan nan nan nan nan nan nan nan nan nan nan nan nan nan nan nan nan nan nan nan nan nan nan nan nan nan nan nan nan nan nan nan nan nan nan nan nan nan nan nan nan nan nan nan nan nan nan nan nan nan nan nan nan nan nan nan nan nan nan nan nan nan
nan nan nan nan nan nan nan nan nan nan nan nan nan nan nan nan nan nan nan nan nan nan nan nan nan nan nan nan nan nan nan nan nan nan nan nan nan nan nan nan nan nan nan nan nan nan nan nan nan nan nan nan nan nan nan nan nan nan nan nan nan nan nan nan nan nan nan nan nan nan nan nan nan nan nan nan nan nan nan nan nan nan nan nan nan
nan nan nan nan nan nan nan nan nan nan nan nan nan nan nan nan nan nan nan nan nan nan nan nan nan nan nan nan nan nan nan nan nan nan nan nan nan nan nan nan nan nan nan nan nan nan nan nan nan nan nan nan nan nan nan nan nan nan nan nan nan nan nan nan nan nan nan nan nan nan nan nan nan nan nan nan nan nan nan nan nan nan nan nan nan
nan nan nan nan nan nan nan nan nan nan nan nan nan nan nan nan nan nan nan nan nan nan nan nan nan nan nan nan nan nan nan nan nan nan nan nan nan nan nan nan nan nan nan nan nan nan nan nan nan nan nan nan nan nan nan nan nan nan nan nan nan nan nan nan nan nan nan nan nan nan nan nan nan nan nan nan nan nan nan nan nan nan nan nan nan
nan nan nan nan nan nan nan nan nan nan nan nan nan nan nan nan nan nan nan nan nan nan nan nan nan nan nan nan nan nan nan nan nan nan nan nan nan nan nan nan nan nan nan nan nan nan nan nan nan nan nan nan nan nan nan nan nan nan nan nan nan nan nan nan nan nan nan nan nan nan nan nan nan nan nan nan nan nan nan nan nan nan nan nan nan
nan nan nan nan nan nan nan nan nan nan nan nan nan nan nan nan nan nan nan nan nan nan nan nan nan nan nan nan nan nan nan nan nan nan nan nan nan nan nan nan nan nan nan nan nan nan nan nan nan nan nan nan nan nan nan nan nan nan nan nan nan nan nan nan nan nan nan nan nan nan nan nan nan nan nan nan nan nan nan nan nan nan nan nan nan
nan nan nan nan nan nan nan nan nan nan nan nan nan nan nan nan nan nan nan nan nan nan nan nan nan nan nan nan nan nan nan nan nan nan nan nan nan nan nan nan nan nan nan nan nan nan nan nan nan nan nan nan nan nan nan nan nan nan nan nan nan nan nan nan nan nan nan nan nan nan nan nan nan nan nan nan nan nan nan nan nan nan nan nan nan
nan nan nan nan nan nan nan nan nan nan nan nan nan nan nan nan nan nan nan nan nan nan nan nan nan nan nan nan nan nan nan nan nan nan nan nan nan nan nan nan nan nan nan nan nan nan nan nan nan nan nan nan nan nan nan nan nan nan nan nan nan nan nan nan nan nan nan nan nan nan nan nan nan nan nan nan nan nan nan nan nan nan nan nan nan
nan nan nan nan nan nan nan nan nan nan nan nan nan nan nan nan nan nan nan nan nan 27 27 27 26 26 26 nan nan nan 27 30 nan nan nan 29 nan nan nan nan nan nan nan nan nan nan nan nan nan nan nan nan nan nan nan nan nan nan nan nan nan nan nan nan nan nan nan nan nan nan nan nan nan nan nan nan nan nan nan nan nan nan nan nan nan
nan nan nan nan nan nan nan nan nan nan nan nan nan nan nan nan nan nan nan nan nan 30 30 29 27 26 26 nan nan nan nan nan nan nan nan nan nan nan nan nan nan nan nan nan nan nan nan nan nan nan nan nan nan nan nan nan nan nan nan nan nan nan nan nan nan nan nan nan nan nan nan nan nan nan nan nan nan nan nan nan nan nan nan nan nan
23 23 22 nan nan nan nan nan nan nan nan nan nan nan nan nan nan nan nan 31 31 32 32 32 31 30 29 nan nan nan nan nan nan nan nan nan nan nan nan nan nan nan nan nan nan nan nan nan nan nan nan nan nan nan nan nan nan nan nan nan nan nan nan nan nan nan nan nan nan nan nan nan nan nan nan nan nan nan nan nan nan nan nan nan nan
23 24 24 23 23 22 22 nan nan nan nan nan nan nan nan nan nan 31 31 33 34 nan 33 33 33 33 33 33 31 nan nan nan nan nan nan nan nan nan nan nan nan nan nan nan nan nan nan nan nan nan nan nan nan nan nan nan nan nan nan nan nan nan nan nan nan nan nan nan nan nan nan nan nan nan nan nan nan nan nan nan nan nan nan nan nan
23 24 24 25 24 25 25 24 nan nan nan nan nan nan nan nan nan 36 33 34 35 33 33 nan nan 34 35 nan nan nan nan nan 37 nan nan nan nan nan nan nan nan nan nan nan nan nan nan nan nan nan nan nan nan nan nan nan nan nan nan nan nan nan nan nan nan nan nan nan nan nan nan nan nan nan nan nan nan nan nan nan nan nan nan nan nan
25 24 25 26 25 27 30 32 32 29 29 29 nan nan nan nan 33 38 36 35 33 32 32 33 34 34 nan nan nan nan nan nan nan 40 41 40 nan nan nan nan nan nan nan nan nan nan nan nan nan nan nan nan nan nan nan nan nan nan nan nan nan nan nan nan nan nan nan nan nan nan nan nan nan nan nan nan nan nan nan nan nan nan nan nan nan
27 27 27 27 28 29 32 35 36 34 32 36 35 36 nan nan 39 35 38 38 35 34 32 32 31 32 30 31 nan nan nan nan nan nan 43 44 44 42 nan nan nan nan nan nan nan nan nan nan nan nan nan nan nan nan nan nan nan nan nan nan nan nan nan nan nan nan nan nan nan nan nan nan nan nan nan nan nan nan nan nan nan nan nan nan nan
32 33 33 34 32 33 34 38 39 37 34 35 36 36 35 39 41 39 40 41 40 37 37 35 30 32 nan nan nan nan nan nan nan nan nan nan 46 nan nan nan nan nan nan nan nan nan nan nan nan nan nan nan nan nan nan nan nan nan nan nan nan nan nan nan nan nan nan nan nan nan nan nan nan nan nan nan nan nan nan nan nan nan nan nan nan
36 34 34 35 35 36 37 39 39 37 36 33 37 40 40 40 42 40 41 41 41 40 40 40 nan 37 nan nan nan nan nan nan nan nan nan nan nan nan 47 nan nan nan nan nan nan nan nan nan nan nan nan nan nan nan nan nan nan nan nan nan nan nan nan nan nan nan nan nan nan nan nan nan nan nan nan nan nan nan nan nan nan nan nan nan nan
nan nan nan 36 37 38 37 36 37 38 37 35 38 43 45 45 46 44 nan 44 43 44 43 40 nan nan nan nan nan nan nan nan nan nan 42 nan nan nan nan nan nan nan nan nan nan nan nan nan nan nan nan nan nan nan nan nan nan nan nan nan nan nan nan nan nan nan nan nan nan nan nan nan nan nan nan nan nan nan nan nan nan nan nan nan nan
nan nan nan nan 36 36 37 37 38 40 41 39 41 44 46 45 47 47 48 49 47 44 45 nan nan nan nan 37 nan nan nan nan nan nan nan nan nan nan nan nan nan nan nan nan nan nan nan nan nan nan nan nan nan nan nan nan nan nan nan nan nan nan nan nan nan nan nan nan nan nan nan nan nan nan nan nan nan nan nan nan nan nan nan nan nan
Wind_Direction
232 243 255 256 260 262 264 264 263 264 266 261 256 251 239 224 230 227 214 208 186 189 269 257 257 253 272 274 271 268 264 263 262 261 261 263 262 265 268 262 256 259 275 274 277 276 271 271 267 267 272 273 271 266 265 265 266 264 263 nan nan nan nan nan nan nan nan nan nan nan nan nan nan nan nan nan nan nan nan nan nan nan nan nan nan
238 252 261 261 259 263 262 264 270 269 264 261 251 242 224 215 235 236 207 199 nan nan 182 303 299 275 272 280 273 263 265 270 269 266 265 262 261 263 269 264 257 251 260 271 272 275 276 270 267 262 268 270 272 269 266 265 266 266 264 262 nan 261 nan nan nan nan nan nan nan nan nan nan nan nan nan nan nan nan nan nan nan nan nan nan nan
246 257 258 261 260 256 254 259 266 267 261 259 256 250 232 233 224 224 228 190 nan nan nan 235 291 283 269 264 278 282 274 271 266 271 272 270 268 265 264 264 260 257 256 259 265 266 273 272 273 272 267 273 275 273 271 267 266 264 262 261 261 258 259 nan nan nan nan nan nan nan nan nan nan nan nan nan nan nan nan nan nan nan nan nan nan
253 257 258 257 262 261 251 257 262 260 261 266 262 245 233 238 223 217 230 214 187 nan nan 343 280 279 279 275 283 285 281 265 260 270 276 277 273 262 258 260 265 267 269 269 267 263 260 276 280 279 278 275 278 276 272 267 268 264 263 261 258 257 255 255 nan nan nan nan nan nan nan nan nan nan nan nan nan nan nan nan nan nan nan nan nan
253 252 252 254 257 254 260 254 261 260 262 267 266 253 235 220 200 212 212 209 196 nan 121 294 266 265 287 287 278 271 268 258 258 267 281 277 268 263 261 262 267 275 274 269 267 264 264 263 269 271 273 278 277 281 276 273 274 269 267 265 260 257 256 255 nan nan nan nan nan nan nan nan nan nan nan nan nan nan nan nan nan nan nan nan nan
257 253 255 253 248 248 257 252 255 262 263 267 267 264 262 240 202 211 211 218 221 nan 86 255 244 259 258 272 272 273 284 278 275 280 277 276 273 266 253 258 268 270 265 274 273 272 270 267 266 264 261 260 275 280 279 273 271 280 278 271 267 261 257 255 253 252 nan nan nan nan nan nan nan nan nan nan nan nan nan nan nan nan nan nan nan
256 260 256 253 252 251 253 255 262 266 268 268 271 265 274 256 222 237 235 234 246 170 143 267 255 272 286 276 285 305 320 300 294 295 285 278 273 262 269 288 280 268 272 273 275 272 267 266 269 270 268 268 264 280 281 281 279 274 275 281 275 267 262 256 253 252 252 nan nan nan nan nan nan nan nan nan nan nan nan nan nan nan nan nan nan
253 264 255 252 248 254 257 262 268 269 266 262 265 273 271 261 241 229 238 231 235 249 156 276 277 283 291 275 289 303 304 299 289 267 263 277 268 272 303 319 282 278 286 281 280 274 271 270 267 266 266 265 266 266 266 270 272 275 273 279 281 272 265 261 257 254 252 nan nan nan nan nan nan nan nan nan nan nan nan nan nan nan nan nan nan
245 249 253 243 237 244 255 268 273 270 266 261 260 273 271 268 251 222 227 228 226 231 201 206 284 294 298 297 281 286 287 292 287 276 272 270 273 293 336 306 290 319 298 294 288 281 274 267 264 262 264 265 263 264 269 269 267 267 269 262 279 274 268 264 264 262 258 253 250 nan nan nan nan nan nan nan nan nan nan nan nan nan nan nan nan
248 241 236 235 239 250 255 265 269 270 270 267 262 261 265 272 266 221 239 241 239 265 254 128 299 302 304 294 263 250 232 261 282 269 277 281 284 314 331 295 298 299 308 310 307 297 290 280 267 271 279 278 275 271 266 265 266 267 266 271 262 267 266 259 263 265 263 263 260 255 nan nan nan nan nan nan nan nan nan nan nan nan nan nan nan
259 256 249 246 243 249 254 255 261 270 272 271 268 262 257 262 271 259 253 255 272 287 287 17 299 292 290 297 285 268 237 230 256 273 282 275 302 308 303 311 315 314 312 316 320 313 305 299 300 297 300 303 301 292 274 264 261 260 262 260 263 257 250 251 252 257 263 262 260 259 264 nan 266 nan nan nan nan nan nan nan nan nan nan nan nan
266 266 263 261 260 264 263 257 255 257 268 273 272 270 268 272 280 281 274 262 265 289 322 304 280 274 271 253 244 253 248 259 246 256 268 281 296 300 307 nan 313 316 314 321 318 319 312 304 297 296 309 305 303 298 279 261 252 250 251 255 254 256 255 242 235 239 248 250 251 258 264 275 275 269 262 nan nan nan nan nan nan nan nan nan nan
275 277 277 274 271 272 273 272 263 261 270 276 278 276 276 280 284 273 280 273 262 270 277 280 282 261 256 263 252 254 273 278 271 263 266 301 nan 301 302 299 310 312 317 316 316 314 309 304 302 304 308 308 304 292 278 268 256 249 245 244 243 247 253 249 239 235 237 241 248 248 255 270 275 272 266 264 263 nan nan nan nan nan nan nan nan
265 267 268 266 264 263 272 275 272 273 277 280 281 282 279 279 280 265 252 274 276 265 272 272 261 283 284 269 257 258 276 277 275 279 273 302 nan nan nan nan 309 306 303 306 312 309 306 305 304 306 305 304 303 301 299 292 nan nan nan nan 242 242 242 246 247 244 242 237 244 243 243 256 271 273 268 268 273 272 nan nan nan nan nan nan nan
268 269 268 269 270 261 262 260 260 255 264 273 279 282 287 289 288 286 272 259 265 251 253 265 286 278 276 271 277 273 254 262 272 283 nan nan 309 nan nan 301 303 302 nan nan 304 302 303 304 305 303 300 299 298 299 298 297 nan nan nan nan nan 243 245 244 244 243 258 264 257 246 244 242 243 258 271 275 277 279 274 277 nan nan nan nan nan
273 271 269 270 267 269 265 267 268 256 264 272 271 271 277 278 278 281 284 275 266 258 260 262 271 286 272 279 288 282 271 279 285 nan nan nan nan nan nan 299 299 295 nan 299 299 nan nan 302 298 297 297 295 296 293 290 nan nan nan nan nan nan nan 242 243 242 241 246 255 264 262 255 251 236 231 243 265 266 265 268 275 286 nan nan nan nan
274 275 277 275 273 274 275 272 271 259 253 263 270 273 258 267 277 277 274 278 274 265 258 257 254 257 287 274 264 267 286 nan 279 nan nan nan nan nan nan nan nan 298 300 299 298 nan nan nan 295 293 289 287 286 nan nan nan nan nan nan nan nan nan nan 241 242 242 242 243 249 257 265 266 270 249 247 239 270 276 272 272 277 278 nan nan nan
271 277 275 274 273 270 270 268 265 269 257 252 263 267 273 266 273 278 270 262 270 265 258 252 258 258 263 273 282 nan 302 nan nan nan nan nan nan nan nan nan 288 293 296 nan nan nan nan nan nan 287 nan nan nan nan nan nan nan nan nan nan nan nan nan nan 244 247 249 250 252 249 246 241 249 251 247 247 249 262 283 292 284 286 292 291 nan
271 273 277 279 279 277 280 277 275 277 270 260 258 264 268 272 271 276 285 273 271 268 287 280 261 258 264 257 265 278 nan nan 296 nan nan nan nan nan nan nan nan nan nan nan nan nan nan nan 284 284 nan nan nan nan nan nan nan nan nan nan nan nan nan nan nan 242 250 255 251 250 253 256 252 250 252 253 248 251 255 255 260 258 271 299 300
278 284 285 283 279 276 276 277 279 278 277 286 280 268 274 276 281 270 272 279 282 283 nan 277 283 273 271 271 270 267 276 278 287 nan nan nan nan nan nan nan nan nan nan nan nan nan nan nan nan nan nan nan nan nan nan nan nan nan nan nan nan nan nan nan nan nan 243 249 255 256 253 254 256 256 255 251 246 244 244 249 270 283 261 254 265
nan nan 286 287 286 281 276 279 284 287 286 282 278 274 273 274 279 285 284 280 280 275 276 279 274 278 279 272 271 276 277 280 286 nan nan nan nan nan nan nan nan nan nan nan nan nan nan nan nan nan nan nan nan nan nan nan nan nan nan nan nan nan nan nan nan nan nan nan nan 254 254 255 257 nan nan nan nan nan 246 247 246 250 266 270 270
nan nan nan 268 nan nan nan nan nan 276 279 279 277 272 268 270 274 279 285 285 273 279 283 286 282 283 287 291 285 281 273 272 281 284 nan nan nan nan nan nan nan nan nan nan nan nan nan nan nan nan nan nan nan nan nan nan nan nan nan nan nan nan nan nan nan nan nan nan nan nan nan nan nan nan nan nan nan nan nan nan nan nan 255 257 256
nan nan nan nan nan 270 nan nan nan nan 270 271 269 273 270 266 262 262 268 273 273 273 276 283 286 287 285 290 293 298 299 297 309 nan nan nan nan nan nan nan nan nan nan nan nan nan nan nan nan nan nan nan nan nan nan nan nan nan nan nan nan nan nan nan nan nan nan nan nan nan nan nan nan nan nan nan nan nan nan nan nan nan nan nan nan
nan nan nan nan nan nan nan nan nan nan 266 270 271 273 275 271 264 264 272 271 273 276 279 284 287 287 284 287 291 291 288 290 305 nan nan nan nan nan nan nan nan nan nan nan nan nan nan nan nan nan nan nan nan nan nan nan nan nan nan nan nan nan nan nan nan nan nan nan nan nan nan nan nan nan nan nan nan nan nan nan nan nan nan nan nan
nan nan 254 246 nan nan nan nan nan nan nan 273 271 274 280 282 284 278 273 276 280 282 287 289 286 285 291 280 280 283 297 303 297 nan nan nan nan nan nan nan nan nan nan nan nan nan nan nan nan nan nan nan nan nan nan nan nan nan nan nan nan nan nan nan nan nan nan nan nan nan nan nan nan nan nan nan nan nan nan nan nan nan nan nan nan
nan nan nan nan nan nan nan nan nan nan nan 280 280 280 282 283 280 278 279 280 275 nan nan nan nan 283 286 286 285 293 290 nan nan nan nan nan nan nan nan nan nan nan nan nan nan nan nan nan nan nan nan nan nan nan nan nan nan nan nan nan nan nan nan nan nan nan nan nan nan nan nan nan nan nan nan nan nan nan nan nan nan nan nan nan nan
nan nan nan nan nan nan nan nan nan nan nan 272 274 274 275 275 274 nan 270 271 nan nan nan nan nan nan nan nan nan nan nan nan nan nan nan nan nan nan nan nan nan nan nan nan nan nan nan nan nan nan nan nan nan nan nan nan nan nan nan nan nan nan nan nan nan nan nan nan nan nan nan nan nan nan nan nan nan nan nan nan nan nan nan nan nan
nan nan nan nan nan nan nan nan nan nan nan nan nan nan 272 nan nan nan 277 276 nan nan nan nan nan nan nan nan nan nan nan nan nan nan nan nan nan nan nan nan nan nan nan nan nan nan nan nan nan nan nan nan nan nan nan nan nan nan nan nan nan nan nan nan nan nan nan nan nan nan nan nan nan nan nan nan nan nan nan nan nan nan nan nan nan
nan nan nan nan nan nan nan nan nan nan nan nan nan nan nan nan nan nan nan nan nan nan nan nan nan nan nan nan nan nan nan nan nan nan nan nan nan nan nan nan nan nan nan nan nan nan nan nan nan nan nan nan nan nan nan nan nan nan nan nan nan nan nan nan nan nan nan nan nan nan nan nan nan nan nan nan nan nan nan nan nan nan nan nan nan
nan nan nan nan nan nan nan nan nan nan nan nan nan nan nan nan nan nan nan nan nan nan nan nan nan nan nan nan nan nan nan nan nan nan nan nan nan nan nan nan nan nan nan nan nan nan nan nan nan nan nan nan nan nan nan nan nan nan nan nan nan nan nan nan nan nan nan nan nan nan nan nan nan nan nan nan nan nan nan nan nan nan nan nan nan
nan nan nan nan nan nan nan nan nan nan nan nan nan nan nan nan nan nan nan nan nan nan nan nan nan nan nan nan nan nan nan nan nan nan nan nan nan nan nan nan nan nan nan nan nan nan nan nan nan nan nan nan nan nan nan nan nan nan nan nan nan nan nan nan nan nan nan nan nan nan nan nan nan nan nan nan nan nan nan nan nan nan nan nan nan
nan nan nan nan nan nan nan nan nan nan nan nan nan nan nan nan nan nan nan nan nan nan nan nan nan nan nan nan nan nan nan nan nan nan nan nan nan nan nan nan nan nan nan nan nan nan nan nan nan nan nan nan nan nan nan nan nan nan nan nan nan nan nan nan nan nan nan nan nan nan nan nan nan nan nan nan nan nan nan nan nan nan nan nan nan
nan nan nan nan nan nan nan nan nan nan nan nan nan nan nan nan nan nan nan nan nan nan nan nan nan nan nan nan nan nan nan nan nan nan nan nan nan nan nan nan nan nan nan nan nan nan nan nan nan nan nan nan nan nan nan nan nan nan nan nan nan nan nan nan nan nan nan nan nan nan nan nan nan nan nan nan nan nan nan nan nan nan nan nan nan
nan nan nan nan nan nan nan nan nan nan nan nan nan nan nan nan nan nan nan nan nan nan nan nan nan nan nan nan nan nan nan nan nan nan nan nan nan nan nan nan nan nan nan nan nan nan nan nan nan nan nan nan nan nan nan nan nan nan nan nan nan nan nan nan nan nan nan nan nan nan nan nan nan nan nan nan nan nan nan nan nan nan nan nan nan
nan nan nan nan nan nan nan nan nan nan nan nan nan nan nan nan nan nan nan nan nan nan nan nan nan nan nan nan nan nan nan nan nan nan nan nan nan nan nan nan nan nan nan nan nan nan nan nan nan nan nan nan nan nan nan nan nan nan nan nan nan nan nan nan nan nan nan nan nan nan nan nan nan nan nan nan nan nan nan nan nan nan nan nan nan
nan nan nan nan nan nan nan nan nan nan nan nan nan nan nan nan nan nan nan nan nan nan nan nan nan nan nan nan nan nan nan nan nan nan nan nan nan nan nan nan nan nan nan nan nan nan nan nan nan nan nan nan nan nan nan nan nan nan nan nan nan nan nan nan nan nan nan nan nan nan nan nan nan nan nan nan nan nan nan nan nan nan nan nan nan
nan nan nan nan nan nan nan nan nan nan nan nan nan nan nan nan nan nan nan nan nan nan nan nan nan nan nan nan nan nan nan nan nan nan nan nan nan nan nan nan nan nan nan nan nan nan nan nan nan nan nan nan nan nan nan nan nan nan nan nan nan nan nan nan nan nan nan nan nan nan nan nan nan nan nan nan nan nan nan nan nan nan nan nan nan
nan nan nan nan nan nan nan nan nan nan nan nan nan nan nan nan nan nan nan nan nan nan nan nan nan nan nan nan nan nan nan nan nan nan nan nan nan nan nan nan nan nan nan nan nan nan nan nan nan nan nan nan nan nan nan nan nan nan nan nan nan nan nan nan nan nan nan nan nan nan nan nan nan nan nan nan nan nan nan nan nan nan nan nan nan
nan nan nan nan nan nan nan nan nan nan nan nan nan nan nan nan nan nan nan nan nan nan nan nan nan nan nan nan nan nan nan nan nan nan nan nan nan nan nan nan nan nan nan nan nan nan nan nan nan nan nan nan nan nan nan nan nan nan nan nan nan nan nan nan nan nan nan nan nan nan nan nan nan nan nan nan nan nan nan nan nan nan nan nan nan
nan nan nan nan nan nan nan nan nan nan nan nan nan nan nan nan nan nan nan nan nan nan nan nan nan nan nan nan nan nan nan nan nan nan nan nan nan nan nan nan nan nan nan nan nan nan nan nan nan nan nan nan nan nan nan nan nan nan nan nan nan nan nan nan nan nan nan nan nan nan nan nan nan nan nan nan nan nan nan nan nan nan nan nan nan
nan nan nan nan nan nan nan nan nan nan nan nan nan nan nan nan nan nan nan nan nan 291 291 292 291 289 290 nan nan nan 288 286 nan nan nan 287 nan nan nan nan nan nan nan nan nan nan nan nan nan nan nan nan nan nan nan nan nan nan nan nan nan nan nan nan nan nan nan nan nan nan nan nan nan nan nan nan nan nan nan nan nan nan nan nan nan
nan nan nan nan nan nan nan nan nan nan nan nan nan nan nan nan nan nan nan nan nan 297 296 294 291 287 288 nan nan nan nan nan nan nan nan nan nan nan nan nan nan nan nan nan nan nan nan nan nan nan nan nan nan nan nan nan nan nan nan nan nan nan nan nan nan nan nan nan nan nan nan nan nan nan nan nan nan nan nan nan nan nan nan nan nan
247 245 248 nan nan nan nan nan nan nan nan nan nan nan nan nan nan nan nan 295 294 295 295 295 292 290 286 nan nan nan nan nan nan nan nan nan nan nan nan nan nan nan nan nan nan nan nan nan nan nan nan nan nan nan nan nan nan nan nan nan nan nan nan nan nan nan nan nan nan nan nan nan nan nan nan nan nan nan nan nan nan nan nan nan nan
245 246 247 244 249 259 266 nan nan nan nan nan nan nan nan nan nan 298 296 293 290 nan 287 289 289 288 289 287 286 nan nan nan nan nan nan nan nan nan nan nan nan nan nan nan nan nan nan nan nan nan nan nan nan nan nan nan nan nan nan nan nan nan nan nan nan nan nan nan nan nan nan nan nan nan nan nan nan nan nan nan nan nan nan nan nan
249 251 255 254 253 252 253 259 nan nan nan nan nan nan nan nan nan 304 296 293 292 290 287 nan nan 286 289 nan nan nan nan nan 290 nan nan nan nan nan nan nan nan nan nan nan nan nan nan nan nan nan nan nan nan nan nan nan nan nan nan nan nan nan nan nan nan nan nan nan nan nan nan nan nan nan nan nan nan nan nan nan nan nan nan nan nan
254 254 260 263 263 261 261 261 264 266 271 276 nan nan nan nan 303 297 293 294 293 293 291 291 288 288 nan nan nan nan nan nan nan 288 287 285 nan nan nan nan nan nan nan nan nan nan nan nan nan nan nan nan nan nan nan nan nan nan nan nan nan nan nan nan nan nan nan nan nan nan nan nan nan nan nan nan nan nan nan nan nan nan nan nan nan
263 265 268 265 262 264 267 270 269 269 270 273 282 288 nan nan 289 283 283 281 280 279 280 279 280 278 279 284 nan nan nan nan nan nan 291 289 284 281 nan nan nan nan nan nan nan nan nan nan nan nan nan nan nan nan nan nan nan nan nan nan nan nan nan nan nan nan nan nan nan nan nan nan nan nan nan nan nan nan nan nan nan nan nan nan nan
256 261 263 264 264 264 269 271 272 272 272 282 289 293 297 294 291 284 284 286 289 290 285 280 278 279 nan nan nan nan nan nan nan nan nan nan 284 nan nan nan nan nan nan nan nan nan nan nan nan nan nan nan nan nan nan nan nan nan nan nan nan nan nan nan nan nan nan nan nan nan nan nan nan nan nan nan nan nan nan nan nan nan nan nan nan
257 260 264 267 268 270 271 273 274 270 270 280 292 299 302 301 291 286 284 285 285 285 285 283 nan 291 nan nan nan nan nan nan nan nan nan nan nan nan 283 nan nan nan nan nan nan nan nan nan nan nan nan nan nan nan nan nan nan nan nan nan nan nan nan nan nan nan nan nan nan nan nan nan nan nan nan nan nan nan nan nan nan nan nan nan nan
nan nan nan 262 267 271 272 270 270 267 268 280 295 299 302 301 297 291 nan 287 288 287 284 283 nan nan nan nan nan nan nan nan nan nan 290 nan nan nan nan nan nan nan nan nan nan nan nan nan nan nan nan nan nan nan nan nan nan nan nan nan nan nan nan nan nan nan nan nan nan nan nan nan nan nan nan nan nan nan nan nan nan nan nan nan nan
nan nan nan nan 259 264 267 265 265 266 267 275 287 293 296 296 293 285 284 282 282 284 286 nan nan nan nan 282 nan nan nan nan nan nan nan nan nan nan nan nan nan nan nan nan nan nan nan nan nan nan nan nan nan nan nan nan nan nan nan nan nan nan nan nan nan nan nan nan nan nan nan nan nan nan nan nan nan nan nan nan nan nan nan nan nan